Location: Newark
(45.5000°N, 11.4167°E)
Time: 20:04:06
(UTC+00:00)

A-11 Canister half - Pass Details

Date: 23 August 2019
Orbit: 1514 x 1686 km, 47.2° (Epoch: 14 September)

Event Time Altitude Azimuth Distance (km) Brightness Sun altitude
Rises 19:43:46 0° 271° (W) 4,720 12.5 -15.7°
Reaches altitude 10° 19:46:48 10° 273° (W) 3,756 11.9 -16.1°
Maximum altitude 19:56:25 81° 1° (N) 1,629 9.1 -17.5°
Enters shadow 20:05:37 13° 89° (E) 3,650 10.5 -18.7°
Drops below altitude 10° 20:06:24 10° 89° (E) 3,894 - -18.8°
Sets 20:09:36 0° 91° (E) 4,900 - -19.3°
